Home   Weather   Paris   Past weeks
Flag for USA

Past Weather in Paris, Idaho, USA — Yesterday and Last 2 Weeks

Now
67 °F

Sunny.


Feels Like: 67 °F
Forecast: 94 / 54 °F
Wind: 7 mph from South

Location: Pocatello Regional Airport

Current Time: Jul 20, 2019 at 10:48:10 pm

Latest Report: Jul 20, 2019 at 9:53 pm


Visibility: 10 mi

Pressure: 29.88 "Hg

Humidity: 37%

Dew Point: 40 °F

Location of ParisLocation

Past Weather in Paris — Graph

°F

Paris Temperature Yesterday

Maximum temperature yesterday: 82 °F (at 2:53 pm)
Minimum temperature yesterday: 60 °F (at 3:53 am)
Average temperature yesterday: 72 °F

High & Low Weather Summary for the Past Weeks

 TemperatureHumidityPressure
High95 °F (Jul 13, 3:53 pm)93% (Jul 14, 5:53 am)30.12 "Hg (Jul 14, 5:53 am)
Low46 °F (Jul 6, 4:53 am)11% (Jul 20, 1:53 pm)29.72 "Hg (Jul 18, 7:53 pm)
Average72 °F42%29.90 "Hg
* Reported Jul 5 8:53 pm — Jul 20 8:53 pm, Paris. Weather by CustomWeather, © 2019

Note: Actual official high and low records may vary slightly from our data, if they occured in-between our weather recording intervals... More about our weather records

Advertising

Paris Weather History for the Previous 24 Hours

Scroll right to see more
 ConditionsComfort  
Time TempWeatherWind HumidityBarometerVisibility
8:53 pm
Sat, Jul 20
78 °FSunny.9 mph25%29.85 "Hg10 mi
7:53 pm83 °FSunny.10 mph20%29.85 "Hg10 mi
6:53 pm86 °FSunny.13 mph16%29.87 "Hg10 mi
5:53 pm87 °FSunny.12 mph15%29.87 "Hg10 mi
4:53 pm85 °FSunny.9 mph15%29.89 "Hg10 mi
3:53 pm86 °FSunny.9 mph13%29.89 "Hg10 mi
2:53 pm83 °FSunny.8 mph14%29.90 "Hg10 mi
1:53 pm81 °FSunny.10 mph11%29.91 "Hg10 mi
12:53 pm78 °FSunny.8 mph16%29.93 "Hg10 mi
11:53 am73 °FSunny.7 mph23%29.94 "Hg10 mi
10:53 am70 °FSunny.7 mph22%29.96 "Hg10 mi
9:53 am68 °FPassing clouds.8 mph28%29.97 "Hg10 mi
8:53 am65 °FSunny.7 mph33%29.96 "Hg10 mi
7:53 am61 °FSunny.7 mph24%29.94 "Hg10 mi
6:53 am53 °FClear.5 mph37%29.94 "Hg10 mi
5:53 am52 °FClear.10 mph35%29.93 "Hg10 mi
4:53 am49 °FClear.8 mph43%29.93 "Hg10 mi
3:53 am54 °FClear.3 mph49%29.91 "Hg10 mi
2:53 am58 °FClear.7 mph27%29.89 "Hg10 mi
1:53 am64 °FClear.8 mph18%29.85 "Hg10 mi
12:53 am66 °FClear.10 mph20%29.85 "Hg10 mi
11:53 pm
Fri, Jul 19
68 °FClear.14 mph26%29.84 "Hg10 mi
10:53 pm68 °FClear.14 mph32%29.84 "Hg10 mi
Weather by CustomWeather, © 2019

See weather overview